NDBC will be participating in PACIFEX26, a partner tabletop exercise with the Tsunami Warning Centers (TWCs) scheduled for May 05 at 1600 UTC. To simulate real-time tsunami observations, the exercise may involve activating Deep Ocean Assessment and Reporting of Tsunami (DART) buoys. For more information please see PNS26-39.

Station APXF1 - East Bay, Apalachicola Reserve, FL Image indicating link to RSS feed of recent meteorological observations for station APXF1


Conditions at APXF1 as of
(1:00 am EDT)
0500 GMT on 05/05/2026:
     

Click on the graph icon in the table below to see a time series plot of the last five days of that observation.

5-day plot - Wind Direction Wind Direction (WDIR):ESE ( 120 deg true )
5-day plot - Wind Speed Wind Speed (WSPD): 1.9 kts
5-day plot - Atmospheric Pressure Atmospheric Pressure (PRES):30.00 in
5-day plot - Pressure Tendency Pressure Tendency (PTDY):+0.00 in ( Steady )
5-day plot - Air Temperature Air Temperature (ATMP): 58.3 °F
5-day plot - Dew Point Dew Point (DEWP): 55.9 °F
5-day plot -  Wind Speed, Wind Gust and Atmospheric Pressure Combined plot of Wind Speed, Gust, and Air Pressure
Previous observations
TIME
(EDT)
5-day plot - Wind Direction
WDIR
 
5-day plot - Wind Speed
WSPD
kts
5-day plot - Wind Gust
GST
kts
5-day plot - Wave Height
WVHT
ft
5-day plot - Dominant Wave Period
DPD
sec
5-day plot - Average Wave Period
APD
sec
5-day plot - Mean Wave Direction
MWD
 
5-day plot - Atmospheric Pressure
PRES
in
5-day plot - Pressure Tendency
PTDY
in
5-day plot - Air Temperature
ATMP
°F
5-day plot - Water Temperature
WTMP
°F
5-day plot - Dew Point
DEWP
°F
5-day plot - Salinity
SAL
psu
5-day plot - Visibility
VIS
nmi
5-day plot - Tide (above MLLW)
TIDE
ft
2026-05-05 12:45 amESE 1.9-----30.03- 58.5- 56.1---
2026-05-05 12:30 am SE 1.0-----30.03- 58.5- 55.9---
2026-05-05 12:15 am S 1.0-----30.03- 59.5- 56.7---
2026-05-05 12:00 amSSE 1.9-----30.00+0.00 59.5- 56.1---
2026-05-04 11:45 pmSSE 1.0-----30.03- 59.9- 55.8---
2026-05-04 11:30 pm S 1.0-----30.03- 63.0- 57.2---
2026-05-04 11:15 pm W 1.9-----30.03- 66.6- 59.5---
2026-05-04 11:00 pmWNW 5.1-----30.03+0.03 68.5- 60.4---
2026-05-04 10:45 pm NW 4.1-----30.03- 69.3- 60.8---
2026-05-04 10:30 pmWNW 5.1-----30.03- 68.9- 60.4---
2026-05-04 10:15 pm W 1.9-----30.03- 65.7- 58.1---
2026-05-04 10:00 pmWSW 1.9-----30.00+0.00 68.4- 58.8---
2026-05-04 09:45 pmWNW 5.1-----30.00- 70.9- 60.4---
2026-05-04 09:30 pm W 6.0-----30.00- 71.2- 59.9---
2026-05-04 09:15 pm W 4.1-----30.00- 69.1- 58.3---
2026-05-04 09:00 pm S 1.0-----30.00+0.00 68.4- 56.8---
2026-05-04 08:45 pmSSW 1.9-----30.00- 70.2- 56.8---
2026-05-04 08:30 pm SW 1.9-----30.00- 70.5- 56.3---
2026-05-04 08:15 pmSSW 1.9-----30.00- 71.1- 55.8---
2026-05-04 08:00 pmSSW 1.9-----30.00-0.03 71.8- 56.1---
2026-05-04 07:45 pm SW 1.9-----30.00- 72.3- 55.6---
2026-05-04 07:30 pm S 2.9-----30.00- 72.7- 55.4---
2026-05-04 07:15 pm S 2.9-----30.00- 73.0- 56.3---
2026-05-04 07:00 pm S 4.1-----30.00-0.03 73.2- 54.9---
2026-05-04 06:45 pm S 4.1-----30.00- 73.4- 54.5---
2026-05-04 06:30 pm S 4.1-----30.00- 73.9- 54.0---
2026-05-04 06:15 pm S 4.1-----30.00- 73.9- 53.4---
2026-05-04 06:00 pmSSE 5.1-----30.00-0.06 73.9- 53.4---
2026-05-04 05:45 pm S 5.1-----30.00- 73.8- 53.2---
2026-05-04 05:30 pm S 5.1-----30.00- 74.1- 53.6---
2026-05-04 05:15 pm S 5.1-----30.00- 73.9- 52.9---
2026-05-04 05:00 pmSSE 6.0-----30.03-0.03 73.9- 52.3---
2026-05-04 04:45 pm SE 7.0-----30.03- 74.3- 53.2---
2026-05-04 04:30 pmSSE 7.0-----30.03- 74.1- 52.5---
2026-05-04 04:15 pm SE 8.0-----30.03- 73.9- 51.6---
2026-05-04 04:00 pmSSE 6.0-----30.03-0.06 74.3- 51.4---
2026-05-04 03:45 pmSSE 7.0-----30.03- 74.1- 50.7---
2026-05-04 03:30 pmSSE 6.0-----30.03- 74.3- 49.5---
2026-05-04 03:15 pm SE 6.0-----30.03- 74.3- 49.5---
2026-05-04 03:00 pmSSE 7.0-----30.06-0.03 74.1- 50.0---
2026-05-04 02:45 pmSSE 7.0-----30.06- 73.9- 49.8---
2026-05-04 02:30 pmSSE 6.0-----30.06- 74.1- 50.0---
2026-05-04 02:15 pm SE 8.0-----30.06- 74.1- 50.7---
2026-05-04 02:00 pmSSE 6.0-----30.06-0.03 74.1- 51.3---
2026-05-04 01:45 pmSSE 8.0-----30.06- 73.4- 51.3---
2026-05-04 01:30 pmSSE 7.0-----30.06- 73.6- 52.5---
2026-05-04 01:15 pm SE 8.0-----30.06- 73.6- 52.0---
2026-05-04 01:00 pm SE 8.0-----30.09+0.00 73.9- 49.3---
2026-05-04 12:45 pmSSE 6.0-----30.09- 74.1- 46.6---
2026-05-04 12:30 pm SE 8.0-----30.09- 73.9- 49.8---
2026-05-04 12:15 pmESE 8.0-----30.09- 73.2- 49.1---
2026-05-04 12:00 pm SE 8.9-----30.09+0.00 73.8- 45.7---
2026-05-04 11:45 am SE 8.9-----30.09- 73.8- 44.1---
2026-05-04 11:30 am SE 7.0-----30.09- 74.1- 46.0---
2026-05-04 11:15 amESE 6.0-----30.09- 73.6- 46.2---
2026-05-04 11:00 amESE 7.0-----30.09+0.00 73.2- 46.6---
2026-05-04 10:45 am E 6.0-----30.09- 72.7- 48.0---
2026-05-04 10:30 am NE 4.1-----30.09- 72.0- 51.1---
2026-05-04 10:15 am NE 4.1-----30.09- 70.0- 52.3---
2026-05-04 10:00 am N 5.1-----30.09+0.03 67.5- 52.9---
2026-05-04 09:45 amNNE 5.1-----30.09- 65.8- 51.8---
2026-05-04 09:30 am N 4.1-----30.09- 65.7- 51.3---
2026-05-04 09:15 amNNE 2.9-----30.09- 63.9- 50.0---
2026-05-04 09:00 am NE 4.1-----30.09+0.03 63.3- 48.6---
2026-05-04 08:45 am NE 5.1-----30.09- 61.9- 47.1---
2026-05-04 08:30 am NE 5.1-----30.09- 61.5- 45.9---
2026-05-04 08:15 am NE 5.1-----30.09- 61.0- 45.9---
2026-05-04 08:00 am NE 4.1-----30.09+0.03 60.4- 46.8---
2026-05-04 07:45 am NE 2.9-----30.09- 59.9- 47.1---
2026-05-04 07:30 amENE 1.9-----30.06- 55.9- 47.1---
2026-05-04 07:15 am E 2.9-----30.06- 54.9- 46.0---
2026-05-04 07:00 am E 1.9-----30.06+0.00 54.9- 47.1---
2026-05-04 06:45 am E 1.9-----30.06- 54.9- 47.8---
2026-05-04 06:30 am E 2.9-----30.06- 54.5- 47.1---
2026-05-04 06:15 am E 1.9-----30.06- 55.4- 48.4---
2026-05-04 06:00 am E 2.9-----30.06-0.03 55.2- 48.9---
2026-05-04 05:45 am E 2.9-----30.06- 55.9- 49.6---
2026-05-04 05:30 am E 2.9-----30.06- 56.3- 50.4---
2026-05-04 05:15 am E 2.9-----30.06- 55.8- 49.5---
2026-05-04 05:00 am E 1.9-----30.06-0.03 56.1- 49.1---
2026-05-04 04:45 am E 1.9-----30.06- 56.5- 49.1---
2026-05-04 04:30 amENE 1.9-----30.06- 59.0- 50.2---
2026-05-04 04:15 amNNE 5.1-----30.06- 61.3- 52.0---
2026-05-04 04:00 amNNE 7.0-----30.06-0.03 61.2- 51.4---
2026-05-04 03:45 amNNE 6.0-----30.06- 61.3- 51.6---
2026-05-04 03:30 am N 6.0-----30.06- 62.2- 50.9---
2026-05-04 03:15 am N 6.0-----30.09- 61.5- 51.8---
2026-05-04 03:00 am N 4.1-----30.09-0.03 61.0- 53.1---
2026-05-04 02:45 amNNE 1.9-----30.09- 60.3- 54.1---
2026-05-04 02:30 am N 4.1-----30.09- 60.1- 55.9---
2026-05-04 02:15 am- 0.0-----30.09- 57.6- 54.1---
2026-05-04 02:00 am- 0.0-----30.09-0.03 58.3- 54.9---
2026-05-04 01:45 am- 0.0-----30.09- 58.1- 54.0---
2026-05-04 01:30 amESE 1.0-----30.09- 58.5- 53.8---
2026-05-04 01:15 amESE 1.0-----30.09- 58.3- 52.9---
2026-05-04 01:00 am E 1.0-----30.09+0.00 58.8- 52.7---